Weather History for KLAF - December, 2012

Change the Weather History Date:

Monday, December 3, 2012

  Actual Average Record
Temperature  
Mean Temperature 63 °F 35 °F  
Max Temperature 70 °F 42 °F 70 °F (1982)
Min Temperature 55 °F 27 °F -1 °F (1966)
Degree Days  
Heating Degree Days 2 30  
Month to date heating degree days 26 89  
Since 1 July heating degree days 1360 1190  
Cooling Degree Days 0 0  
Month to date cooling degree days 0 0  
Year to date cooling degree days 1181 983  
Growing Degree Days 12 (Base 50)    
Moisture  
Dew Point 57 °F    
Average Humidity 81    
Maximum Humidity 100    
Minimum Humidity 61    
Precipitation  
Precipitation 0.00 in 0.09 in 0.84 in (1951)
Month to date precipitation 0.14 0.29  
Year to date precipitation 27.84 34.36  
Sea Level Pressure  
Sea Level Pressure 30.01 in    
Wind  
Wind Speed 10 mph (SSW)    
Max Wind Speed 23 mph    
Max Gust Speed 35 mph    
Visibility 6 miles    
Events Fog    
T = Trace of Precipitation, MM = Missing Value Source: NWS Daily Summary

Daily Weather History Graph

Daily Weather History Graph

Search for Another Location

Airport or City:

Trip Planner

Search our weather history database for the weather conditions in past years. The results will help you decide how hot, cold, wet, or windy it might be!

Date:

Astronomy

Dec. 03, 2012 Rise Set
Actual Time 7:54 AM EST 5:21 PM EST
Civil Twilight 7:23 AM EST 5:51 PM EST
Nautical Twilight 6:49 AM EST 6:25 PM EST
Astronomical Twilight 6:16 AM EST 6:58 PM EST
Moon 10:08 PM EST (12/3) 11:16 AM EST (12/3)
Length of Visible Light 10h 28m
Length of Day
9h 27m
Waning Gibbous, 78% of the Moon is Illuminated
Dec 3
Waning Gibbous
Dec 6
Last Quarter
Dec 13
New
Dec 20
First Quarter
Dec 28
Full

Hourly Weather History & Observations

Time (EST) Temp. Dew Point Humidity Pressure Visibility Wind Dir Wind Speed Gust Speed Precip Events Conditions
12:19 AM 55.4 °F 55.4 °F 100% 30.08 in 4.0 mi Calm Calm - N/A   Overcast
12:42 AM 55.4 °F 55.4 °F 100% 30.08 in 1.8 mi Calm Calm - N/A   Overcast
12:54 AM 55.0 °F 55.0 °F 100% 30.07 in 0.5 mi South 3.5 mph - N/A Fog Fog
1:07 AM 55.4 °F 55.4 °F 100% 30.07 in 0.2 mi Calm Calm - N/A Fog Fog
1:28 AM 55.4 °F 55.4 °F 100% 30.07 in 0.5 mi SW 4.6 mph - N/A Fog Fog
1:54 AM 57.0 °F 55.9 °F 96% 30.06 in 1.2 mi South 4.6 mph - N/A   Overcast
2:54 AM 57.0 °F 57.0 °F 100% 30.07 in 2.0 mi Calm Calm - N/A   Overcast
3:37 AM 57.2 °F 55.4 °F 94% 30.07 in 2.5 mi South 3.5 mph - N/A   Overcast
3:54 AM 57.0 °F 57.0 °F 100% 30.06 in 3.0 mi South 4.6 mph - N/A   Overcast
4:11 AM 57.2 °F 57.2 °F 100% 30.06 in 3.0 mi South 4.6 mph - N/A   Overcast
4:52 AM 57.2 °F 57.2 °F 100% 30.05 in 3.0 mi South 4.6 mph - N/A   Overcast
4:54 AM 57.9 °F 57.0 °F 97% 30.04 in 3.0 mi South 4.6 mph - N/A   Overcast
5:51 AM 57.2 °F 57.2 °F 100% 30.04 in 2.5 mi South 4.6 mph - N/A   Overcast
5:54 AM 57.9 °F 57.9 °F 100% 30.04 in 2.5 mi South 4.6 mph - N/A   Overcast
6:02 AM 59.0 °F 57.2 °F 94% 30.04 in 2.5 mi South 4.6 mph - N/A   Overcast
6:54 AM 59.0 °F 57.9 °F 96% 30.04 in 2.0 mi South 6.9 mph - N/A   Overcast
7:36 AM 59.0 °F 59.0 °F 100% 30.04 in 2.0 mi South 8.1 mph - 0.01 in   Overcast
7:54 AM 60.1 °F 59.0 °F 96% 30.04 in 2.5 mi SSW 10.4 mph - 0.01 in   Overcast
8:11 AM 60.8 °F 57.2 °F 88% 30.03 in 2.5 mi SSW 9.2 mph - N/A   Overcast
8:54 AM 61.0 °F 57.9 °F 90% 30.03 in 4.0 mi South 6.9 mph - N/A   Overcast
10:54 AM 63.0 °F 59.0 °F 87% 30.01 in 10.0 mi SSW 9.2 mph - N/A   Overcast
11:37 AM 64.4 °F 59.0 °F 83% 30.01 in 10.0 mi SSW 11.5 mph 18.4 mph N/A   Overcast
11:54 AM 64.9 °F 59.0 °F 81% 29.99 in 10.0 mi SW 16.1 mph 24.2 mph N/A   Overcast
12:54 PM 66.0 °F 57.9 °F 75% 29.97 in 10.0 mi SSW 13.8 mph 19.6 mph N/A   Mostly Cloudy
1:54 PM 66.9 °F 57.9 °F 73% 29.95 in 10.0 mi SSW 8.1 mph 25.3 mph N/A   Overcast
2:37 PM 68.0 °F 57.2 °F 68% 29.94 in 10.0 mi SSW 12.7 mph 20.7 mph N/A   Mostly Cloudy
2:54 PM 68.0 °F 57.9 °F 70% 29.93 in 10.0 mi SSW 10.4 mph 18.4 mph N/A   Scattered Clouds
3:54 PM 70.0 °F 57.0 °F 63% 29.93 in 10.0 mi SW 17.3 mph 31.1 mph N/A   Clear
4:54 PM 69.1 °F 55.9 °F 63% 29.91 in 10.0 mi SSW 16.1 mph 27.6 mph N/A   Clear
5:54 PM 66.0 °F 55.0 °F 68% 29.91 in 10.0 mi South 15.0 mph 21.9 mph N/A   Clear
6:54 PM 64.9 °F 54.0 °F 68% 29.92 in 10.0 mi SSW 13.8 mph 23.0 mph N/A   Clear
7:54 PM 64.0 °F 55.0 °F 73% 29.96 in 10.0 mi SW 10.4 mph 23.0 mph N/A   Scattered Clouds
8:54 PM 64.0 °F 55.0 °F 73% 29.95 in 10.0 mi SW 13.8 mph 34.5 mph N/A   Mostly Cloudy
9:54 PM 63.0 °F 55.0 °F 75% 29.94 in 10.0 mi SSW 12.7 mph 25.3 mph N/A   Scattered Clouds
10:54 PM 64.0 °F 55.0 °F 73% 29.95 in 10.0 mi SW 10.4 mph 21.9 mph N/A   Partly Cloudy
11:54 PM 63.0 °F 55.0 °F 75% 29.95 in 10.0 mi SSW 8.1 mph - N/A   Overcast